Location: Fairmont
(43.6520°N, 94.4610°W)
Time: 21:19:57
(UTC-05:00)

Cosmos-2242 - Visible Passes

Search period start: 01 September 2015 00:00
Search period end: 11 September 2015 00:00
Orbit: 592 x 621 km, 82.5° (Epoch: 01 September)

Date Brightness Start Highest point End Pass type
(mag) Time Alt. Az. Time Alt. Az. Time Alt. Az.
01 Sep 4.9 22:21:05 20° NE 22:21:05 20° NE 22:22:41 10° NNE visible
01 Sep 5.6 23:57:58 17° NW 23:57:58 17° NW 23:59:43 10° NNW visible
02 Sep 4.5 22:34:19 28° NNE 22:34:19 28° NNE 22:36:26 10° NNE visible
03 Sep 6.0 00:11:12 12° NW 00:11:12 12° NW 00:12:12 10° NW visible
03 Sep 4.4 22:47:32 34° N 22:47:32 34° N 22:50:01 10° N visible
04 Sep 5.1 21:23:50 13° ENE 21:23:50 13° ENE 21:24:41 10° NE visible
04 Sep 4.6 23:00:43 33° NNW 23:00:43 33° NNW 23:03:26 10° N visible
05 Sep 4.6 21:36:58 21° NE 21:36:58 21° NE 21:38:59 10° NNE visible
05 Sep 5.1 23:13:51 25° NW 23:13:51 25° NW 23:16:37 10° NNW visible
06 Sep 3.9 21:50:04 34° NE 21:50:04 34° NE 21:52:54 10° NNE visible
06 Sep 5.6 23:26:57 17° WNW 23:26:57 17° WNW 23:29:30 10° NNW visible
07 Sep 3.3 22:03:06 56° NNE 22:03:06 56° NNE 22:06:34 10° NNE visible
07 Sep 6.1 23:39:58 10° WNW 23:40:34 10° WNW 23:41:12 10° NW visible
08 Sep 5.0 20:39:11 11° ENE 20:39:11 11° ENE 20:40:13 10° ENE visible
08 Sep 3.4 22:16:03 61° WNW 22:16:03 61° WNW 22:20:04 10° N visible
09 Sep 4.4 20:52:03 19° E 20:52:03 19° E 20:55:08 10° NE visible
09 Sep 4.3 22:28:54 35° W 22:29:26 36° WNW 22:33:24 10° N visible
10 Sep 3.7 21:04:47 30° ESE 21:05:25 31° E 21:09:14 10° NNE visible
10 Sep 5.2 22:41:37 19° W 22:43:07 22° WNW 22:46:29 10° NNW visible
